Regional Weather Roundup
Issued by NWS Newport/Morehead, NC

Current Version | Previous Version | Graphics & Text | Print | Product List | Glossary Off
Versions: 1 2 3 4 5 6 7 8 9 10 11 12 13 14 15 16 17 18 19 20 21 22 23 24 25 26 27 28 29 30 31 32 33 34 35 36 37 38 39 40 41 42 43 44 45 46 47 48 49 50
000 ASUS42 KMHX 231022 RWRMHX WEATHER ROUNDUP FOR EASTERN NORTH CAROLINA NATIONAL WEATHER SERVICE NEWPORT/MOREHEAD CITY NC 600 AM EDT TUE SEP 23 2014 NOTE: "FAIR" INDICATES FEW OR NO CLOUDS BELOW 12,000 FEET WITH NO SIGNIFICANT WEATHER AND/OR OBSTRUCTIONS TO VISIBILITY NCZ015>017-031-032-045>047-102-103-231100- NORTH COAST CITY SKY/WX TMP DP RH WIND PRES REMARKS EDENTON CLOUDY 62 53 72 NE10 30.20R ELIZABETH CITY CLOUDY 62 54 74 N13 30.20R KITTY HAWK CLOUDY 68 53 59 NE9G16 30.18R MANTEO CLOUDY 67 53 59 NE12G21 30.19R $$ NCZ045>047-081-094-103-104-231100- CENTRAL COAST CITY SKY/WX TMP DP RH WIND PRES REMARKS FRISCO CLOUDY 68 58 70 NE9G18 30.16R SWANQUARTER N/A 66 N/A N/A NE12 30.12S $$ NCZ095-097-098-100-101-231100- SOUTHERN COAST CITY SKY/WX TMP DP RH WIND PRES REMARKS BEAUFORT CLOUDY 70 61 73 NE13 30.13S CEDAR ISLAND N/A 72 N/A N/A NE22G28 30.18F JACKSONVILLE CLOUDY 67 61 81 NE10 30.13S NEWPORT NOT AVBL PINEY ISLAND CLOUDY 73 59 61 NE18G28 30.15R WILMINGTON CLOUDY 65 63 93 N8 30.12R $$ NCZ011>013-027>030-043-044-078>080-089-090>093-098-231100- COASTAL PLAIN CITY SKY/WX TMP DP RH WIND PRES REMARKS AHOSKIE CLOUDY 57 47 69 N6 30.24R CLINTON CLOUDY 65 60 86 NE6 30.17S ELIZABETHTOWN CLOUDY 66 59 78 CALM 30.14S GOLDSBORO CLOUDY 63 61 91 N2 30.18R GREENVILLE CLOUDY 61 55 82 N7 30.21R HAVELOCK CLOUDY 69 59 70 NE13G23 30.16R KENANSVILLE CLOUDY 63 57 82 NE5 30.18R KINSTON CLOUDY 63 58 82 N8 30.20R NEW BERN CLOUDY 67 60 78 NE5 30.18R RICHLANDS CLOUDY 64 57 77 NE9 30.15F ROANOKE RAPIDS NOT AVBL ROCKY MOUNT CLOUDY 60 48 64 N10 30.21R WASHINGTON CLOUDY 60 57 88 N6 30.21R WHITEVILLE CLOUDY 65 60 83 NE7 30.12S $$ AMZ130-135-150-152-154-156-158-170-250-252-270-ANZ085-086-088-633-658-670-231100- MARINE OBSERVATIONS STATION/POSITION TIME TEMP WIND PRES WAVE SWELL AIR SEA DIR/SP/G HT/PER HT/PER (UTC) (F) (DEG/KT/KT) (MB) (FT/S) (FT/S) CHESAPEAKE LIGHT 1000 65 30/ 18/ 21 1023.5 BUOY 44014 1000 69 75 30/ 16/ 19 1022.0 4/ 7 2/10 DUCK 1000 68 74 30/ 20/ 22 1021.5 2E DUCK 1000 N/A 5/ 5 OREGON INLET 1000 69 75 20/ 16/ 20 1021.7 BUOY 44095 1000 74 N/A 5/ 5 20E OREGON INLET NOT AVBL HATTERAS CG NOT AVBL DIAMOND BUOY 1000 73 30/ 19/ 25 1020.2 5/ 7 2/ 9 CAPE LOOKOUT 1000 73 40/ 22/ 28 1020.0 BEAUFORT LAB 1000 70 76 50/ 6/ 14 1019.9 30 SE NEW RIVER 1000 75 82 50/ 25/ 27 1018.2 5/ 5 2/ 9 5 SE WRIGHTSVILL 1000 71 79 60/ 19/ 23 N/A BUOY 41002 0948 79 81 60/ 6/ 8 1018.1 3/ 7 3/ 7 BUOY 41004 1000 72 81 40/ 14/ 16 1017.3 4/ 5 2/ 8 $$

USA.gov is the U.S. government's official web portal to all federal, state and local government web resources and services.